AAL1994 KCMH-KLAX

Flight info

Callsign AAL1994
Flight time N/A
Altitude 36000
Route PKACZ TARRY DQN JAAVE J80 BAYLI SLN/N0453F380 PENUT GOSIP ALS COCAN J64 TBC DNERO ANJLL4
Aircraft B38M/M-SDE1FGHILORVWXY/HB1

Departure

Time 2026-05-07 23:04
Airport John Glenn Columbus International Airport (KCMH)

Arrival

Time N/A
Airport Los Angeles International Airport (KLAX)
Time Latitude Longitude Altitude Speed Heading
2026-05-07 22:41 39.99733 -82.88267 824 ft 0 kts 27°
2026-05-07 22:57 39.99724 -82.88273 827 ft 3 kts 27°
2026-05-07 22:57 39.99706 -82.88286 825 ft 3 kts 27°
2026-05-07 22:57 39.99688 -82.88299 824 ft 3 kts 27°
2026-05-07 22:57 39.99673 -82.88310 823 ft 2 kts 27°
2026-05-07 22:58 39.99670 -82.88311 826 ft 0 kts 27°
2026-05-07 23:00 39.99673 -82.88303 824 ft 4 kts 66°
2026-05-07 23:00 39.99659 -82.88235 827 ft 13 kts 114°
2026-05-07 23:00 39.99611 -82.88079 827 ft 21 kts 99°
2026-05-07 23:00 39.99594 -82.87894 827 ft 19 kts 94°
2026-05-07 23:01 39.99566 -82.87782 827 ft 7 kts 161°
2026-05-07 23:01 39.99507 -82.87781 827 ft 11 kts 186°
2026-05-07 23:01 39.99402 -82.87790 827 ft 18 kts 165°
2026-05-07 23:01 39.99364 -82.87704 827 ft 11 kts 99°
2026-05-07 23:02 39.99351 -82.87543 827 ft 25 kts 93°
2026-05-07 23:02 39.99331 -82.87333 826 ft 14 kts 128°
2026-05-07 23:02 39.99269 -82.87322 827 ft 10 kts 186°
2026-05-07 23:02 39.99190 -82.87333 827 ft 12 kts 189°
2026-05-07 23:03 39.99166 -82.87379 826 ft 8 kts 271°
2026-05-07 23:03 39.99167 -82.87392 826 ft 3 kts 274°
2026-05-07 23:03 39.99186 -82.87729 826 ft 73 kts 274°
2026-05-07 23:03 39.99240 -82.88665 828 ft 132 kts 274°
2026-05-07 23:04 39.99302 -82.90045 971 ft 164 kts 276°
2026-05-07 23:04 39.99365 -82.91571 1553 ft 176 kts 273°
2026-05-07 23:04 39.99395 -82.93213 2205 ft 185 kts 274°
2026-05-07 23:04 39.99427 -82.94904 2982 ft 190 kts 274°
2026-05-07 23:05 39.99447 -82.96661 3665 ft 199 kts 274°
2026-05-07 23:05 39.99457 -82.98561 4178 ft 221 kts 273°
2026-05-07 23:05 39.99464 -83.00678 4467 ft 252 kts 272°
2026-05-07 23:05 39.99474 -83.03011 5268 ft 256 kts 272°
2026-05-07 23:06 39.99485 -83.05246 6745 ft 232 kts 273°
2026-05-07 23:06 39.99621 -83.07395 7318 ft 246 kts 277°
2026-05-07 23:06 39.99776 -83.09661 7754 ft 260 kts 276°
2026-05-07 23:06 39.99900 -83.12003 8611 ft 258 kts 275°
2026-05-07 23:07 40.00003 -83.14351 9363 ft 261 kts 275°
2026-05-07 23:07 40.00096 -83.16718 10143 ft 262 kts 275°
2026-05-07 23:07 40.00184 -83.19146 10549 ft 277 kts 274°
2026-05-07 23:07 40.00270 -83.21732 10818 ft 294 kts 274°
2026-05-07 23:08 40.00357 -83.24451 11279 ft 303 kts 274°
2026-05-07 23:08 40.00441 -83.27191 12034 ft 303 kts 274°
2026-05-07 23:08 40.00525 -83.29948 12733 ft 305 kts 274°
2026-05-07 23:08 40.00609 -83.32723 13472 ft 307 kts 274°
2026-05-07 23:09 40.00692 -83.35517 14203 ft 309 kts 274°
2026-05-07 23:09 40.00774 -83.38321 14952 ft 310 kts 274°
2026-05-07 23:09 40.00856 -83.41127 15749 ft 310 kts 274°
2026-05-07 23:09 40.00938 -83.43938 16505 ft 311 kts 274°
2026-05-07 23:10 40.01019 -83.46760 17236 ft 312 kts 274°
2026-05-07 23:10 40.01100 -83.49597 17942 ft 314 kts 273°
2026-05-07 23:10 40.01180 -83.52439 18600 ft 315 kts 273°
2026-05-07 23:10 40.01260 -83.55297 19223 ft 315 kts 274°
2026-05-07 23:11 40.01358 -83.58155 19831 ft 315 kts 277°
2026-05-07 23:11 40.01732 -83.60980 20391 ft 317 kts 279°
2026-05-07 23:11 40.02101 -83.63821 20964 ft 318 kts 279°
2026-05-07 23:11 40.02461 -83.66678 21533 ft 320 kts 278°
2026-05-07 23:12 40.02814 -83.69551 22099 ft 321 kts 278°
2026-05-07 23:12 40.03164 -83.72440 22643 ft 323 kts 277°
2026-05-07 23:12 40.03513 -83.75337 23180 ft 325 kts 277°
2026-05-07 23:12 40.03863 -83.78257 23693 ft 327 kts 277°
2026-05-07 23:13 40.04215 -83.81193 24120 ft 328 kts 277°
2026-05-07 23:13 40.04567 -83.84148 24532 ft 330 kts 276°
2026-05-07 23:13 40.04921 -83.87119 24949 ft 332 kts 276°
2026-05-07 23:13 40.05274 -83.90108 25355 ft 334 kts 275°
2026-05-07 23:14 40.05254 -83.93132 25713 ft 335 kts 264°
2026-05-07 23:14 40.05035 -83.96172 26052 ft 339 kts 266°
2026-05-07 23:14 40.04820 -83.99241 26444 ft 340 kts 265°
2026-05-07 23:14 40.04592 -84.02324 26838 ft 342 kts 265°
2026-05-07 23:15 40.04356 -84.05424 27215 ft 344 kts 265°
2026-05-07 23:15 40.04115 -84.08541 27583 ft 346 kts 265°
2026-05-07 23:15 40.03871 -84.11677 27949 ft 348 kts 265°
2026-05-07 23:15 40.03624 -84.14830 28307 ft 350 kts 265°
2026-05-07 23:16 40.03375 -84.17992 28664 ft 352 kts 265°
2026-05-07 23:16 40.03127 -84.21143 29000 ft 354 kts 265°
2026-05-07 23:16 40.02873 -84.24339 29335 ft 356 kts 265°
2026-05-07 23:16 40.02617 -84.27560 29664 ft 358 kts 265°
2026-05-07 23:17 40.02359 -84.30797 29963 ft 360 kts 265°
2026-05-07 23:17 40.02098 -84.34056 30240 ft 362 kts 265°
2026-05-07 23:17 40.01836 -84.37318 30609 ft 361 kts 265°
2026-05-07 23:17 40.01656 -84.40571 30992 ft 359 kts 269°
2026-05-07 23:18 40.01585 -84.43818 31370 ft 357 kts 268°
2026-05-07 23:18 40.01500 -84.47053 31746 ft 356 kts 268°
2026-05-07 23:18 40.01440 -84.49181 32001 ft 355 kts 268°
2026-05-07 23:18 40.01314 -84.53472 32504 ft 353 kts 268°
2026-05-07 23:19 40.01250 -84.55590 32756 ft 352 kts 268°
2026-05-07 23:19 40.01153 -84.58774 33130 ft 351 kts 268°
2026-05-07 23:19 40.01054 -84.61946 33488 ft 349 kts 268°
2026-05-07 23:19 40.00956 -84.65107 33841 ft 348 kts 268°
2026-05-07 23:20 40.00857 -84.68249 34154 ft 347 kts 268°
2026-05-07 23:20 40.00757 -84.71399 34374 ft 348 kts 268°
2026-05-07 23:20 40.00656 -84.74552 34609 ft 348 kts 268°
2026-05-07 23:20 40.00554 -84.77705 34845 ft 348 kts 268°
2026-05-07 23:21 40.00451 -84.80861 35074 ft 348 kts 268°
2026-05-07 23:21 40.00348 -84.84019 35302 ft 349 kts 268°
2026-05-07 23:21 40.00243 -84.87171 35517 ft 349 kts 268°
2026-05-07 23:21 40.00138 -84.90335 35741 ft 349 kts 268°
2026-05-07 23:22 40.00031 -84.93499 35936 ft 350 kts 268°
2026-05-07 23:22 39.99815 -84.99843 35997 ft 349 kts 268°
2026-05-07 23:23 39.99597 -85.06147 36000 ft 349 kts 268°
2026-05-07 23:23 39.99374 -85.12489 35999 ft 351 kts 268°
2026-05-07 23:24 39.99148 -85.18837 35996 ft 350 kts 268°